Torna al catalogo

STARLINK-30863

AttivoComunicazioniVLEO
NORAD 59027·PAYLOAD·🇺🇸 United States

Lanciato Feb 25, 2024 da Cape Canaveral Space Force Station

Loading…

Prossimi Passaggi (prossime 24 ore)

TLE

AggiornatoSource: CelesTrak SupGP

Epoca: Sep 15, 2026, 02:32 UTC

1 59027C 24038E   26258.10604167 -.00026847  00000+0 -97249-3 0  2588
2 59027  43.0048  37.7372 0001746 273.5094  13.7419 15.27587990    10

Traccia STARLINK-30863 in tempo reale con AllMySat

Download on the App Store